FOX-1D (AO-92) (43137 NORAD) Tracking and Keplerian Element Data.

This shows tracking and keplerian element data for the satellite.

Feedback or suggestion? Click here.

NameFOX-1D (AO-92)
Epoch Orbit1032
Epoch Day80.16659499
Epoch Year2018
Argument of Perigee54.8515
Mean Anonmoly305.3736
Mean Motion15.22504226
Decay Rate1.529E-05
L11 43137U 18004AC 18080.16659499 .00001529 00000-0 69042-4 0 9999
L22 43137 97.5441 142.5885 0010846 54.8515 305.3736 15.22504226 10322

Live tracking and technical data element details for FOX-1D (AO-92) (NORAD 43137). FOX-1D (AO-92) can be tracked NOW for your location showing map with azimuth and elevation plus other details from your city location.

Tracking and technical details about the satellite: track the satellite on the map from your city or location and see movement details for azimuth, elevation, latitude, longitude, range, height, and movement on the map or in text.

Es'hailsat 2 (coming in 2018)

IsCatalogInMostPopularTable: catalog: 43137, numindb: 250
Update: records affected: 1

GetName: 43137 FOX-1D (AO-92)

Hit Count: updated at: Thu, 22 Mar 2018 13:40:43 GMT